Location: Dresden
(51.0483°N, 13.7137°E)
Time: 09:17:12
(UTC+01:00)

ISS - Pass Details

Date: 10 February 2018
Orbit: 402 x 407 km, 51.6° (Epoch: 24 February)

Event Time Altitude Azimuth Distance (km) Brightness Sun altitude
Rises 18:39:41 0° 284° (WNW) 2,322 1.5 -14.2°
Reaches altitude 10° 18:41:57 10° 271° (W) 1,460 0.4 -14.5°
Maximum altitude 18:44:44 26° 213° (SSW) 839 -1.8 -14.9°
Drops below altitude 10° 18:47:31 10° 155° (SSE) 1,454 -1.2 -15.4°
Enters shadow 18:47:34 10° 154° (SSE) 1,477 -1.2 -15.4°
